Location: Grand Rapids
(42.9630°N, 85.6680°W)
Time: 02:15:35
(UTC-04:00)

S-56A Canister/Altair - Pass Details

Date: 01 June 2024
Orbit: 637 x 2489 km, 38.9° (Epoch: 21 June)

Event Time Altitude Azimuth Distance (km) Brightness Sun altitude
Rises 03:18:12 0° 211° (SSW) 5,915 - -21.1°
Reaches altitude 10° 03:22:21 10° 204° (SSW) 5,036 - -20.8°
Exits shadow 03:27:36 24° 189° (S) 4,068 10.6 -20.4°
Maximum altitude 03:35:19 38° 144° (SE) 3,349 10.5 -19.7°
Drops below altitude 10° 03:47:26 10° 83° (E) 4,734 12.0 -18.7°
Sets 03:51:09 0° 76° (ENE) 5,539 12.6 -18.3°
